Hourly Data Report for September 29, 2017

All times are specified in Local Standard Time (LST). Add 1 hour to adjust for Daylight Saving Time where and when it is observed.

NAPPAN AUTO
NOVA SCOTIA

45°45'34.400" N
64°14'29.200" W
19.80 m
8203702
71311
XNP

Download Data

Hourly Data (September 2017)
Hourly Data Report for September 29, 2017
Temp Definition
°C
Dew Point Temp Definition
°C
Rel Hum Definition
%
Wind Dir Definition
10's deg

Wind Spd Definition
km/h
Visibility Definition
km
Stn Press Definition
kPa
Hmdx Definition


Wind Chill Definition


Weather Definition


TIME
00:00 9.3 5.9 79 31 15   100.39     LegendNANA
01:00 8.7 5.1 78 31 15   100.40     LegendNANA
02:00 8.4 4.8 78 31 14   100.41     LegendNANA
03:00 7.6 4.7 82 31 16   100.43     LegendNANA
04:00 7.7 4.8 82 31 21   100.46     LegendNANA
05:00 7.4 4.2 81 31 19   100.52     LegendNANA
06:00 7.2 4.0 80 30 20   100.58     LegendNANA
07:00 7.5 3.9 78 31 20   100.65     LegendNANA
08:00 8.6 3.5 70 32 23   100.70     LegendNANA
09:00 9.4 3.3 66 33 27   100.73     LegendNANA
10:00 10.8 3.8 62 32 25   100.75     LegendNANA
11:00 11.1 3.5 60 35 22   100.80     LegendNANA
12:00 11.3 3.2 57 34 22   100.83     LegendNANA
13:00 11.8 3.7 58 32 20   100.89     LegendNANA
14:00 11.6 3.6 58 32 16   100.95     LegendNANA
15:00 11.0 4.2 63 35 20   101.02     LegendNANA
16:00 10.6 4.2 65 35 22   101.08     LegendNANA
17:00 10.1 4.6 69 36 17   101.13     LegendNANA
18:00 8.9 5.6 80 2 15   101.23     LegendNANA
19:00 9.0 5.8 80 36 13   101.31     LegendNANA
20:00 8.5 6.3 86 35 13   101.40     LegendNANA
21:00 8.1 6.8 92 35 15   101.45     LegendNANA
22:00 7.8 6.8 94 35 9   101.48     LegendNANA
23:00 7.9 6.8 92 32 10   101.55     LegendNANA

Notes on Data Quality.

Legend

  • E = Estimated
  • M = Missing
  • NA = Not Available
  • ‡ = Partner data that is not subject to review by the National Climate Archives
Date modified: